Regional Weather Roundup
Issued by NWS Upton, NY

Current Version | Previous Version | Text Only | Print | Product List | Glossary On
Versions: 1 2 3 4 5 6 7 8 9 10 11 12 13 14 15 16 17 18 19 20 21 22 23 24 25 26 27 28
000
ASUS41 KOKX 200505
RWROKX

REGIONAL WEATHER ROUNDUP
NATIONAL WEATHER SERVICE NEW YORK NY
100 AM EDT SUN APR 20 2014

NOTE: "FAIR" INDICATES FEW OR NO CLOUDS BELOW 12,000 FEET WITH NO
SIGNIFICANT WEATHER AND/OR OBSTRUCTIONS TO VISIBILITY.

NYZ071-072-176-178-NJZ106-104-200600-
NEW YORK CITY METRO AREA


CITY           SKY/WX    TMP DP  RH WIND       PRES   REMARKS
CENTRAL PARK   PTCLDY    53  25  33 NE10G17   30.39R
LAGUARDIA APRT PTCLDY    52  25  35 NE14G21   30.36R
KENNEDY INTL   PTCLDY    53  25  33 N14       30.37R
NEWARK/LIBERTY MOCLDY    52  27  38 N14       30.36R
TETERBORO      PTCLDY    54  25  32 NE8       30.36R
$$

NYZ177-179-078>081-200600-
LONG ISLAND NEW YORK

CITY           SKY/WX    TMP DP  RH WIND       PRES   REMARKS
FARMINGDALE    PTCLDY    49  28  44 N12       30.36R
ISLIP          PTCLDY    51  28  41 NE12      30.35R
SHIRLEY        MOCLDY    48  30  49 VRB3      30.38R
WESTHAMPTON    MOCLDY    50  33  52 E7        30.38R
MONTAUK POINT    N/A     47  36  65 E6        30.41R
$$

NYZ052-065-067-200600-
HUDSON VALLEY

CITY           SKY/WX    TMP DP  RH WIND       PRES   REMARKS
WHITE PLAINS   CLEAR     48  23  37 N6        30.36R
NEWBURGH       NOT AVBL
MONTGOMERY     CLEAR     46  25  43 NE12      30.39R
POUGHKEEPSIE   CLEAR     42  30  62 CALM      30.40R
ALBANY         PTCLDY    42  23  46 N9        30.43R
$$

NJZ001-105-106-008-010-013-015-019>022-104-200600-
NEW JERSEY

CITY           SKY/WX    TMP DP  RH WIND       PRES   REMARKS
NEWARK/LIBERTY MOCLDY    52  27  38 N14       30.36R
TETERBORO      PTCLDY    54  25  32 NE8       30.36R
CALDWELL       CLEAR     50  25  37 VRB3      30.37R
MORRISTOWN     PTCLDY    50  25  37 N3        30.37S
SOMERVILLE     PTCLDY    49  25  39 VRB3      30.34R
LINDEN         FAIR      55  26  32 NE9       30.38R
SUSSEX         PTCLDY    49  26  41 N12       30.38R
ANDOVER          N/A     47  28  47 NE5       30.37R
TRENTON        PTCLDY    49  27  42 NE6       30.34R
MILLVILLE      CLOUDY    39  36  89 W3        30.33R
ATLANTIC CITY  CLOUDY    43  37  79 CALM      30.32R
WRIGHTSTOWN    MOCLDY    42  34  74 N5        30.32R
TOMS RIVER     CLOUDY    39  32  75 CALM      30.35R
BELMAR         CLOUDY    52  28  40 NE8       30.35R
$$

PAZ047>061-062-071-200600-
EASTERN PENNSYLVANIA

CITY           SKY/WX    TMP DP  RH WIND       PRES   REMARKS
PHILADELPHIA   MOCLDY    51  36  56 CALM      30.35R
ALLENTOWN      MOCLDY    47  24  40 CALM      30.36R
SCRANTON       PTCLDY    41  26  55 VRB6      30.37R
$$

CTZ002-004>006-009-010-012-RIZ004-006-007-MAZ004-011-015-200600-
SOUTHERN NEW ENGLAND
 IN CT

CITY           SKY/WX    TMP DP  RH WIND       PRES   REMARKS
BRADLEY INTL   PTCLDY    42  25  50 NE6       30.42R
HARTFORD       CLEAR     46  24  42 N6        30.42R
DANBURY        CLEAR     41  29  62 NE3       30.40R
WTRBRY/OXFORD  CLEAR     45  25  45 NE7       30.43R
BRIDGEPORT     CLEAR     51  29  42 NE14      30.39R
MERIDEN        CLEAR     47  25  42 NE5       30.41R
NEW HAVEN      CLEAR     49  28  44 NE3       30.39R
CHESTER        FAIR      48  28  46 NE6       30.40R
GROTON         PTCLDY    45  34  65 N5        30.40R
WILLIMANTIC    CLEAR     44  28  53 CALM      30.42R

 IN RI

CITY           SKY/WX    TMP DP  RH WIND       PRES   REMARKS
PROVIDENCE     CLEAR     46  23  40 N16       30.41R
BLOCK ISLAND   MOCLDY    45  36  70 NE7       30.39R
WESTERLY       PTCLDY    44  34  67 NE5       30.41R

 IN MA

CITY           SKY/WX    TMP DP  RH WIND       PRES   REMARKS
BOSTON         PTCLDY    45  23  42 N8        30.43R
WORCESTER      CLEAR     40  23  50 NE6       30.40S
WESTFIELD      CLEAR     45  25  45 NE3       30.42R
PROVINCETOWN   CLEAR     43  36  75 MISG      30.42R
NANTUCKET      MOCLDY    44  32  62 N12       30.39R
$$

ANZ330-335-338-340-345-350-353-355-200600-
COASTAL MARINE OBSERVATIONS


STATION/POSITION TIME  SKY/WX   TEMP    WIND        PRES    VSBY  WAVE
                                AIR SEA DIR/SP/G                  HT/PER
                 (UTC)          (F)     (DEG/KT/KT) (MB)    (MI)  (FT/S)
NY HARB ENTRANCE 0500            49 45  220/  8/ 10 1027.3
4S FIRE IS       0400               46                N/A           3/ 9
23SW MTP         0500            45 43   80/ 12/ 14 1028.1          3/ 9
HUDSON CANYON    0400            46 44  100/  6/  6 1026.4          4/ 9
EXECUTION ROCKS  0500            49 32  360/ 10/ 12   N/A
WESTERN LI SOUND 0500            49      20/  8/ 10   N/A           0
CENTRAL LI SOUND 0400            47 43   80/ 14/ 16   N/A           1
EASTERN LI SOUND NOT AVBL
ROBBINS REEF     0500            53      10/ 13/ 15   N/A
$$


>>>>>>>>>>>>>>>>>>>>>>>>>>>> KEY <<<<<<<<<<<<<<<<<<<<<<<<<<<
>                                                          <
>     SKY/WX - SKY CONDITION/PRESENT WEATHER               <
>     TMP    - TEMPERATURE IN FAHRENHEIT                   <
>     DP     - DEWPOINT IN FAHRENHEIT                      <
>     RH     - RELATIVE HUMIDITY IN PERCENT                <
>     WIND   - DIRECTION AND SPEED IN MPH                  <
>     PRES   - MEAN SEA LEVEL PRESSURE IN INCHES OF HG     <
>     WCI    - WIND CHILL INDEX                            <
>     VSB    - VISIBILITY IN MILES                         <
>     HX     - HEAT INDEX                                  <
>     TC     - TEMPERATURE IN CELSIUS                      <
>     VRB    - VARIABLE WIND DIRECTION                     <
>                                                          <
>>>>>>>>>>>>>>>>>>>>>>>>>>>> KEY <<<<<<<<<<<<<<<<<<<<<<<<<<<





USA.gov is the U.S. government's official web portal to all federal, state and local government web resources and services.